Find Starlink 32635

NORAD ID: 62155 Int'l Des: 2024-224 Owner: SPXS Country: US Constellation: starlink operational
LEOCIRCULAR

Current View

Loading 3D Globe...

About Starlink 32635

Starlink 32635 (NORAD 62155) is a starlink constellation satellite (v2 mini) launched Nov 30, 2024 by SPXS of US. It operates in LEO, CIRCULAR orbit with a mass of 730.00 kg.

About Starlink 32635

Description loading...

Upcoming Passes

Passes for default location (London). Set your location on the main map for personalized predictions.

Altitude History

Loading altitude history...

Two-Line Element Set

1 62155U 24224S 26167.17002380 .00022696 00000-0 83081-3 0 9994
2 62155 43.0026 329.5194 0001024 259.2714 100.8023 15.27617227 87296
Epoch: Jun 16, 2026 • Age: 20 hours

Current Status

Altitude 485.8 km
Velocity 7.62 km/s
Sub-Earth Point -16.28°S, 99.23°W
Launch Date Nov 30, 2024
Age 1.5 years
Type internet

Technical Details

Classification Payload
Mass 730.00 kg
Dry Mass 700.00 kg
Total Mass 730.00 kg
Length 0.30 m
Diameter 4.10 m
Span 29.00 m
Shape Box + pan
Manufacturer SPXS
Bus Type Starlink V2M
Phase Status In Orbit
Owner/State SPXS/US

Most Searched